STARLINK-32253, 60733

Orbit data source: Space-Track

STARLINK-32253, 60733 is a payload satellite owned by SpaceX/Seattle (US) in LEO that was launched on Wed, 28 Aug 2024 UTC via an FALCON 9 launch vehicle from the Air Force Eastern Test Range (AFETR). Payload-class satellites include a variety of spacecraft equipped with specific instruments for various scientific and technological missions. These include communications satellites like Starlink; space stations such as the ISS; scientific satellites like the Hubble; Earth observation satellites from companies like Planet Labs, Umbra, and HawkEye 360; GPS; miniature CubeSats for education and research; and military/defense satellites.

Loading next visibility...
Identifier
60733, 2024-152P
Orbit
LEO
Country
Flag of USUS
Related business
Manufacturer
SpaceX/Seattle
Mission
Operational Commercial Communications
Bus & Motor
STARLINK V2M, Unknown motor
Mass
730 kg wet, ~700 kg dry
Launch date (UTC)
2024-08-28 (1 year ago)
Launch vehicle
FALCON 9
Launch site
Air Force Eastern Test Range (AFETR)
Object type
Payload
Rocket body
Debris
Shape & HBR
Box + 2 Pan, 17.7 m
Radar Cross Section
33.884 m², Large (>1 m²)

Expand to show TLE details & history
Last TLE update: 9 hours ago

TLE from 9 hours ago
0 STARLINK-32253
1 60733U 24152P   25346.89793055  .00000802  00000-0  39208-4 0  9995
2 60733  53.1633 311.4873 0000964  90.5806 269.5305 15.30189356 73513
Epoch: 2025-12-12T21:33Z
TLE epoch observation values (Epoch: 2025-12-12T21:33:01.199Z)
Latitude
-0.00004°
Longitude
-93.60068°
Altitude
476.152 km
Speed
7.629 km/s
True Right ascension
20h 45m 56s
True Declination
0° 00' 00"
Sunlit
Object was in daylight at epoch
Visualization orbit readout
Latitude
Unknown
Longitude
Unknown
Altitude
Unknown
Speed
Unknown
Apparent Right ascension
Unknown
Apparent Declination
Unknown
Sunlit
N/A
Visualization observer readout
Local Sidereal Time
05:23:39
Azimuth
Unknown
Elevation
Unknown
Doppler factor
Unknown
Orbital elements
Apogee altitude
476.163 km
Perigee altitude
474.842 km
Semi-major axis
6,853.64 km
Eccentricity
0.0001
Inclination
53.1633°
RAAN
311.4873°
Arg. of periapsis
90.5806°
True anomaly
269.51945°
Mean anomaly
269.5305°
Eccentric anomaly
269.52498°
Mean motion
3.82526 °/min
Orbital period
94.11 mins
BSTAR
0.000039208
Loading maneuver chart data...
Computing Atmospheric mass density...
Loading historical data...
Loading historical data...
Loading historical data...
Loading historical data...
Loading historical data...
Loading historical data...
Loading historical data...

Documentation

Showing up to 5 results
|